Find Starlink 31883

NORAD ID: 60020 Int'l Des: 2024-111 Owner: SPXS Country: US Constellation: starlink operational
LEOCIRCULAR

当前视图

正在加载3D地球...

About Starlink 31883

Starlink 31883 (NORAD 60020) is a starlink constellation satellite (v2 mini) launched Jun 8, 2024 by SPXS of US. It operates in LEO, CIRCULAR orbit with a mass of 730.00 kg.

关于 Starlink 31883

正在加载描述...

即将过境

Passes for default location (London). Set your location on the main map for personalized predictions.

高度历史

Loading altitude history...

两行轨道根数

1 60020U 24111E 26171.39192294 -.00000544 00000-0 -62602-5 0 9999
2 60020 53.1609 318.8743 0000886 81.6414 278.4687 15.30196413114702
Epoch: Jun 20, 2026 • Age: 12 hours

当前状态

高度 477.8 km
速度 7.63 km/s
星下点 36.81°N, 120.61°W
发射日期 Jun 8, 2024
运行时间 2 years
类型 internet

技术详情

分类 Payload
质量 730.00 kg
干质量 700.00 kg
总质量 730.00 kg
长度 0.30 m
直径 4.10 m
跨度 29.00 m
形状 Box + pan
制造商 SPXS
平台类型 Starlink V2M
阶段状态 In Orbit
所有者/国家 SPXS/US

Most Searched